FW0647 Weather Reports


time (UTC)temp
C
wind
direction
speed
KPH
gust
KPH
rain 1hr
cm
rain 24hr
cm
rain mn
cm
humidity
%
barometer
mb
20260906230017 38 154 0.0 0.0 0.00 0.00 0.00 41 1014.0
20260906224517 38 360 0.0 1.6 0.00 0.00 0.00 40 1014.1
20260906223015 37 360 0.0 0.0 0.00 0.00 0.00 42 1014.0
20260906221514 38 360 0.0 0.0 0.00 0.00 0.00 41 1014.3
20260906220017 38 360 0.0 0.0 0.00 0.00 0.00 41 1014.3
20260906214511 38 360 0.0 1.6 0.00 0.00 0.00 40 1014.5
20260906213011 38 360 0.0 0.0 0.00 0.00 0.00 41 1014.5
20260906211508 39 360 0.0 0.0 0.00 0.00 0.00 40 1014.8
20260906210005 37 360 0.0 1.6 0.00 0.00 0.00 43 1015.1
20260906204505 37 360 3.2 9.7 0.00 0.00 0.00 42 1015.1
20260906203003 38 360 0.0 0.0 0.00 0.00 0.00 42 1015.3
20260906201501 38 360 0.0 1.6 0.00 0.00 0.00 41 1015.4
20260906200108 38 360 0.0 0.0 0.00 0.00 0.00 44 1015.5
20260906194556 37 360 0.0 1.6 0.00 0.00 0.00 45 1015.7
20260906193055 37 360 0.0 1.6 0.00 0.00 0.00 45 1015.8
20260906191551 37 360 0.0 1.6 0.00 0.00 0.00 45 1016.0
20260906190053 37 360 0.0 0.0 0.00 0.00 0.00 46 1016.2
20260906184549 36 360 0.0 0.0 0.00 0.00 0.00 47 1016.3
20260906183048 36 360 0.0 0.0 0.00 0.00 0.00 48 1016.5
20260906181546 35 360 0.0 0.0 0.00 0.00 0.00 49 1016.8
20260906180040 35 360 0.0 0.0 0.00 0.00 0.00 51 1017.0
20260906174536 35 360 0.0 0.0 0.00 0.00 0.00 51 1017.2
20260906173031 34 360 0.0 1.6 0.00 0.00 0.00 53 1017.4
20260906171527 33 360 0.0 3.2 0.00 0.00 0.00 54 1017.6
20260906170024 33 360 0.0 0.0 0.00 0.00 0.00 56 1017.8
20260906164533 32 360 0.0 0.0 0.00 0.00 0.00 58 1017.9
20260906163023 32 360 0.0 1.6 0.00 0.00 0.00 59 1018.0
20260906161515 31 360 0.0 0.0 0.00 0.00 0.00 62 1018.1
20260906160013 31 360 0.0 1.6 0.00 0.00 0.00 65 1018.1
20260906154510 30 119 0.0 1.6 0.00 0.00 0.00 66 1018.2
20260906153013 30 360 0.0 0.0 0.00 0.00 0.00 68 1018.1
20260906151504 30 360 0.0 0.0 0.00 0.00 0.00 70 1018.0
20260906150003 29 360 0.0 0.0 0.00 0.00 0.00 71 1017.9
20260906144501 28 360 0.0 0.0 0.00 0.00 0.00 72 1017.7
20260906143006 28 360 0.0 0.0 0.00 0.00 0.00 74 1017.7
20260906141616 28 360 0.0 0.0 0.00 0.00 0.00 74 1017.9
20260906140107 27 360 0.0 0.0 0.00 0.00 0.00 75 1017.9
20260906134615 27 360 0.0 0.0 0.00 0.00 0.00 76 1017.6
20260906133058 27 360 0.0 0.0 0.00 0.00 0.00 77 1017.5
20260906131556 27 360 0.0 0.0 0.00 0.00 0.00 77 1017.7
20260906130125 26 360 0.0 0.0 0.00 0.00 0.00 78 1017.7
20260906124602 26 360 0.0 0.0 0.00 0.00 0.00 78 1017.7
20260906123052 26 360 0.0 0.0 0.00 0.00 0.00 78 1017.5
20260906121602 26 360 0.0 0.0 0.00 0.00 0.00 78 1017.3
20260906120059 26 360 0.0 0.0 0.00 0.00 0.00 78 1017.0
20260906114546 26 360 0.0 0.0 0.00 0.00 0.00 78 1016.9
20260906113051 26 360 0.0 0.0 0.00 0.00 0.00 76 1016.7
20260906111543 27 360 0.0 0.0 0.00 0.00 0.00 76 1016.6
20260906110041 27 360 0.0 0.0 0.00 0.00 0.00 76 1016.5
20260906104540 27 360 0.0 0.0 0.00 0.00 0.00 76 1016.5
20260906103050 27 360 0.0 0.0 0.00 0.00 0.00 75 1016.3
20260906101539 27 360 0.0 0.0 0.00 0.00 0.00 75 1016.2
20260906100038 27 360 0.0 0.0 0.00 0.00 0.00 75 1016.0
20260906094536 27 360 0.0 0.0 0.00 0.00 0.00 74 1015.9
20260906093042 27 360 0.0 0.0 0.00 0.00 0.00 73 1015.8
20260906091539 27 360 0.0 0.0 0.00 0.00 0.00 73 1015.7
20260906090034 27 360 0.0 1.6 0.00 0.00 0.00 74 1015.6
20260906084533 27 360 0.0 1.6 0.00 0.00 0.00 74 1015.7
20260906083031 27 360 0.0 0.0 0.00 0.00 0.00 73 1015.7
20260906081529 28 360 0.0 0.0 0.00 0.00 0.00 72 1015.7
20260906080030 28 360 0.0 1.6 0.00 0.00 0.00 72 1015.8
20260906074528 28 360 0.0 0.0 0.00 0.00 0.00 72 1016.1
20260906073025 28 360 0.0 0.0 0.00 0.00 0.00 72 1016.0
20260906071524 28 360 0.0 1.6 0.00 0.00 0.00 72 1015.8
20260906070022 28 360 0.0 0.0 0.00 0.00 0.00 71 1015.9
20260906064532 28 360 0.0 3.2 0.00 0.00 0.00 70 1016.0
20260906063019 28 360 0.0 0.0 0.00 0.00 0.00 70 1016.3
20260906061523 28 360 0.0 3.2 0.00 0.00 0.00 69 1016.3
20260906060014 29 360 0.0 1.6 0.00 0.00 0.00 69 1016.2
20260906054525 29 360 0.0 0.0 0.00 0.00 0.00 68 1016.3
20260906053013 29 360 0.0 0.0 0.00 0.00 0.00 69 1016.3
20260906051511 29 360 0.0 0.0 0.00 0.00 0.00 70 1016.4
20260906050009 30 360 0.0 0.0 0.00 0.00 0.00 70 1016.4
20260906044508 30 360 0.0 0.0 0.00 0.00 0.00 69 1016.3
20260906043019 30 360 0.0 1.6 0.00 0.00 0.00 68 1016.1
20260906041507 30 360 0.0 0.0 0.00 0.00 0.00 68 1016.1
20260906040007 30 360 0.0 0.0 0.00 0.00 0.00 69 1016.1
20260906034507 30 360 0.0 1.6 0.00 0.00 0.00 68 1016.0
20260906033006 30 360 0.0 1.6 0.00 0.00 0.00 66 1016.2
20260906031508 30 360 0.0 0.0 0.00 0.00 0.00 65 1016.2
20260906030004 31 360 0.0 0.0 0.00 0.00 0.00 64 1016.2
20260906024507 31 360 0.0 0.0 0.00 0.00 0.00 63 1016.0
20260906023004 31 360 0.0 1.6 0.00 0.00 0.00 62 1015.6
20260906021506 31 360 0.0 1.6 0.00 0.00 0.00 61 1015.5
20260906020004 32 360 0.0 1.6 0.00 0.00 0.00 58 1015.2
20260906014512 32 360 0.0 1.6 0.00 0.00 0.00 56 1014.9
20260906013007 33 360 0.0 1.6 0.00 0.00 0.00 53 1014.6
20260906011502 35 360 0.0 1.6 0.00 0.00 0.00 46 1014.2
20260906010003 35 229 0.0 0.0 0.00 0.00 0.00 45 1014.1
20260906004502 36 360 0.0 1.6 0.00 0.00 0.00 44 1014.2
20260906003003 36 360 0.0 0.0 0.00 0.00 0.00 42 1014.1
20260906001601 37 360 0.0 0.0 0.00 0.00 0.00 42 1014.1
20260906000100 37 360 0.0 1.6 0.00 0.00 0.00 41 1013.9
20260905234602 37 360 0.0 1.6 0.00 0.00 0.00 40 1013.9
20260905233116 37 360 0.0 0.0 0.00 0.00 0.00 40 1013.8
20260905231559 37 360 0.0 1.6 0.00 0.00 0.00 40 1013.8